Location: North Runcton
(52.7000°N, 0.4333°E)
Time: 15:40:23
(UTC+00:00)

USA 245 - Pass Details

Date: 19 May 2025
Orbit: 292 x 1030 km, 97.9° (Epoch: 02 June)

Event Time Altitude Azimuth Distance (km) Brightness Sun altitude
Exits shadow 20:37:31 - 154° (SSE) 2,355 5.9 -5.7°
Reaches altitude 10° 20:38:21 10° 152° (SSE) 2,026 5.6 -5.8°
Maximum altitude 20:42:47 68° 71° (ENE) 802 4.1 -6.3°
Drops below altitude 10° 20:48:20 10° 349° (N) 2,512 7.7 -6.9°
Sets 20:50:59 0° 347° (NNW) 3,554 8.6 -7.1°
